Location: Newark
(36.8464°N, 25.6817°E)
Time: 22:37:51
(UTC+00:00)

ISS - Visible Passes

Search period start: 17 October 2019 00:00
Search period end: 27 October 2019 00:00
Orbit: 411 x 421 km, 51.6° (Epoch: 17 October)

Date Brightness Start Highest point End Pass type
(mag) Time Alt. Az. Time Alt. Az. Time Alt. Az.
21 Oct -0.7 04:02:29 10° S 04:04:45 17° SE 04:07:02 10° E visible
23 Oct -3.0 04:00:49 10° SW 04:04:06 54° SE 04:07:24 10° ENE visible
24 Oct -1.8 03:12:41 10° SSW 03:15:37 28° SE 03:18:34 10° ENE visible
25 Oct -1.1 02:26:36 15° SE 02:27:12 16° SE 02:29:18 10° E visible
25 Oct -3.4 04:00:24 10° WSW 04:03:39 46° NW 04:06:55 10° NE visible
26 Oct -3.9 03:13:51 37° SW 03:15:03 85° NW 03:18:26 10° NE visible
